Weather History for KPHX - August, 2013

Change the Weather History Date:

Sunday, August 4, 2013

  Actual Average Record
Temperature  
Mean Temperature 98 °F 94 °F  
Max Temperature 106 °F 105 °F 116 °F (1975)
Min Temperature 90 °F 84 °F 68 °F (1956)
Degree Days  
Heating Degree Days 0 0  
Month to date heating degree days 0 0  
Since 1 June heating degree days 0 0  
Since 1 July heating degree days 0 0  
Cooling Degree Days 33 29  
Month to date cooling degree days 133 116  
Year to date cooling degree days 3092 2700  
Since 1 June cooling degree days 1994 1814  
Growing Degree Days 48 (Base 50)    
Moisture  
Dew Point 42 °F    
Average Humidity 17    
Maximum Humidity 24    
Minimum Humidity 9    
Precipitation  
Precipitation 0.00 in 0.03 in 0.78 in (1918)
Month to date precipitation 0.00 0.14  
Year to date precipitation 4.38 4.42  
Snow  
Snow 0.00 in - - ()
Month to date snowfall 0.0  
Year to date snowfall 0.0  
Since 1 July snowfall 0.0  
Snow Depth 0.00 in    
Sea Level Pressure  
Sea Level Pressure 29.80 in    
Wind  
Wind Speed 6 mph (East)    
Max Wind Speed 14 mph    
Max Gust Speed 15 mph    
Visibility 10 miles    
Events      
T = Trace of Precipitation, MM = Missing Value Source: NWS Daily Summary

Daily Weather History Graph

Daily Weather History Graph

Search for Another Location

Airport or City:

Trip Planner

Search our weather history database for the weather conditions in past years. The results will help you decide how hot, cold, wet, or windy it might be!

Date:

Astronomy

Aug. 04, 2013 Rise Set
Actual Time 5:42 AM MST 7:24 PM MST
Civil Twilight 5:15 AM MST 7:51 PM MST
Nautical Twilight 4:43 AM MST 8:23 PM MST
Astronomical Twilight 4:09 AM MST 8:58 PM MST
Moon 3:48 AM MST 5:50 PM MST
Length of Visible Light 14h 35m
Length of Day
13h 41m
Waning Crescent, 4% of the Moon is Illuminated
Aug 4
Waning Crescent
Aug 6
New
Aug 14
First Quarter
Aug 20
Full
Aug 28
Last Quarter

Hourly Weather History & Observations

Time (MST) Temp. Dew Point Humidity Pressure Visibility Wind Dir Wind Speed Gust Speed Precip Events Conditions
12:08 AM 99.0 °F 48.0 °F 18% 29.84 in 10.0 mi West 9.2 mph - N/A   Mostly Cloudy
12:51 AM 98.1 °F 41.0 °F 14% 29.78 in 10.0 mi West 11.5 mph - N/A   Mostly Cloudy
1:51 AM 96.1 °F 41.0 °F 15% 29.78 in 10.0 mi WNW 9.2 mph - N/A   Mostly Cloudy
2:51 AM 95.0 °F 41.0 °F 15% 29.78 in 10.0 mi NNW 4.6 mph - N/A   Mostly Cloudy
3:51 AM 93.9 °F 37.9 °F 14% 29.79 in 10.0 mi NNW 4.6 mph - N/A   Mostly Cloudy
4:51 AM 93.9 °F 37.0 °F 14% 29.80 in 10.0 mi WNW 4.6 mph - N/A   Mostly Cloudy
5:51 AM 93.0 °F 35.1 °F 13% 29.82 in 10.0 mi NW 5.8 mph - N/A   Mostly Cloudy
6:51 AM 91.9 °F 30.9 °F 11% 29.84 in 10.0 mi NNW 3.5 mph - N/A   Mostly Cloudy
7:51 AM 93.0 °F 42.1 °F 17% 29.85 in 10.0 mi SE 5.8 mph - N/A   Mostly Cloudy
8:51 AM 93.9 °F 46.0 °F 19% 29.87 in 10.0 mi ESE 8.1 mph - N/A   Mostly Cloudy
9:51 AM 96.1 °F 48.9 °F 20% 29.88 in 10.0 mi Variable 5.8 mph - N/A   Mostly Cloudy
10:51 AM 99.0 °F 44.1 °F 15% 29.87 in 10.0 mi SE 9.2 mph - N/A   Mostly Cloudy
11:51 AM 100.9 °F 37.0 °F 11% 29.86 in 10.0 mi South 10.4 mph - N/A   Mostly Cloudy
12:51 PM 100.0 °F 41.0 °F 13% 29.85 in 10.0 mi SE 5.8 mph - N/A   Mostly Cloudy
1:51 PM 99.0 °F 35.1 °F 11% 29.83 in 10.0 mi Variable 4.6 mph - N/A   Mostly Cloudy
2:51 PM 102.0 °F 34.0 °F 9% 29.80 in 10.0 mi Calm Calm - N/A   Mostly Cloudy
3:51 PM 106.0 °F 37.0 °F 9% 29.77 in 10.0 mi East 6.9 mph - N/A   Mostly Cloudy
4:51 PM 105.1 °F 39.0 °F 10% 29.75 in 10.0 mi ENE 5.8 mph - N/A   Scattered Clouds
5:51 PM 104.0 °F 39.9 °F 11% 29.74 in 10.0 mi East 6.9 mph - N/A   Scattered Clouds
6:51 PM 102.9 °F 41.0 °F 12% 29.74 in 10.0 mi Variable 5.8 mph - N/A   Mostly Cloudy
7:51 PM 100.9 °F 43.0 °F 14% 29.75 in 10.0 mi East 6.9 mph - N/A   Mostly Cloudy
8:51 PM 99.0 °F 46.0 °F 16% 29.77 in 10.0 mi ESE 4.6 mph - N/A   Mostly Cloudy
9:51 PM 98.1 °F 46.0 °F 17% 29.78 in 10.0 mi Calm Calm - N/A   Scattered Clouds
10:51 PM 93.9 °F 52.0 °F 24% 29.78 in 10.0 mi East 3.5 mph - N/A   Scattered Clouds
11:51 PM 93.0 °F 50.0 °F 23% 29.77 in 10.0 mi Calm Calm - N/A   Mostly Cloudy